Probability
0 0 0 0 0 0 0 0 0 0 0 0 0 0 0 0 0 0 0 0 0 1 2 2 3 3 1 0 0 1 1 1 0 0 0 0 0 0 0 0 0 0 0 0 0 0 0 0 0
0 0 0 0 0 0 0 0 0 0 0 0 0 0 0 0 0 0 0 0 0 0 1 2 3 3 2 1 0 0 0 0 0 0 0 0 0 0 0 0 0 0 0 0 0 0 0 0 0
0 0 0 0 0 0 0 0 0 0 0 0 0 0 0 0 0 0 0 0 0 0 0 2 3 4 2 1 0 0 0 0 0 0 0 0 0 0 0 0 0 0 0 0 0 0 0 0 0
0 0 0 0 0 0 0 0 0 0 0 0 0 0 0 0 0 0 0 0 0 0 1 3 4 4 3 1 0 0 0 0 0 0 0 0 0 0 0 0 0 0 0 0 0 0 0 0 0
0 0 0 0 0 0 0 0 0 0 0 0 0 0 0 0 0 0 0 0 0 1 2 3 4 4 3 1 0 0 0 0 0 0 0 0 0 0 0 0 0 0 0 0 0 0 0 0 0
0 0 0 0 0 0 0 0 0 0 0 0 0 1 1 1 0 0 0 0 1 1 2 3 3 3 2 1 0 0 0 0 0 0 0 0 0 0 0 0 0 0 0 0 0 0 0 0 0
0 0 0 0 0 0 0 0 0 0 0 0 0 1 2 1 0 0 0 1 2 2 2 1 1 1 2 2 1 0 0 0 0 0 0 0 0 0 0 0 0 0 0 0 0 0 0 0 0
0 0 0 0 0 0 0 0 0 0 0 0 0 1 1 1 0 0 0 1 2 2 1 0 0 1 3 3 2 1 2 1 0 0 0 0 0 0 0 0 0 0 0 0 0 0 0 0 0
0 0 0 0 0 0 0 0 0 0 0 0 0 0 0 0 0 0 0 1 1 1 0 0 1 3 5 4 2 3 4 3 1 0 0 0 0 0 0 0 0 0 0 0 0 0 0 0 0
0 0 0 0 0 0 0 0 0 0 0 0 0 2 4 4 1 0 0 0 0 0 0 0 2 4 6 5 3 3 3 2 1 0 0 0 0 0 0 0 0 0 0 0 0 0 0 0 0
0 0 0 0 0 0 0 0 0 0 0 0 2 8 15 13 6 2 0 0 0 0 0 0 1 4 6 7 6 4 2 1 0 0 0 0 0 0 0 0 0 0 0 0 0 0 0 0 0
0 0 0 0 0 0 0 0 0 0 0 0 8 24 33 27 16 7 2 1 0 0 0 0 0 3 7 10 11 8 4 1 0 0 0 0 0 0 0 0 0 0 0 0 0 0 0 0 0
0 0 0 0 0 0 0 0 0 0 0 2 16 40 53 46 32 19 10 6 3 1 0 0 1 5 11 16 16 12 6 2 0 0 0 0 0 0 0 0 0 0 0 0 0 0 0 0 0
0 0 0 0 0 0 0 0 0 0 0 4 21 47 63 62 53 43 32 23 15 7 2 1 4 10 17 21 21 16 8 2 0 0 0 0 0 0 0 0 0 0 0 0 0 0 0 0 0
0 0 0 0 0 0 0 0 0 0 0 4 19 44 62 65 66 65 58 47 36 21 8 4 9 15 22 26 24 17 8 2 1 0 0 0 0 0 0 0 0 0 0 0 0 0 0 0 0
0 0 0 0 0 0 0 0 0 0 0 3 14 36 55 59 61 66 66 61 55 43 27 19 23 28 33 36 28 17 8 4 2 1 0 0 0 0 0 0 0 0 0 0 0 0 0 0 0
0 0 0 0 0 0 0 0 0 0 0 1 8 25 43 50 50 52 58 63 68 67 57 51 51 54 57 55 40 22 13 8 4 2 1 1 1 0 0 0 0 0 0 0 0 0 0 0 0
0 0 0 0 0 0 0 0 0 0 0 0 2 12 27 36 39 42 47 58 72 83 83 81 81 82 81 75 56 35 21 11 5 3 2 2 1 0 0 0 0 0 0 0 0 0 0 0 0
0 0 0 0 0 0 0 0 0 0 0 0 0 4 12 20 25 28 35 47 65 84 92 93 94 93 91 83 64 41 22 9 3 2 1 1 1 0 0 0 0 0 0 0 0 0 0 0 0
0 0 0 0 0 0 0 0 0 0 0 0 0 0 3 7 10 13 21 33 52 74 88 91 90 89 84 72 52 28 11 3 1 1 0 0 0 0 0 0 0 0 0 0 0 0 0 0 0
0 0 0 0 0 0 0 0 0 0 0 0 1 2 2 3 4 6 12 23 41 61 75 80 80 77 67 50 30 12 3 0 0 0 0 0 0 0 0 0 0 0 0 0 0 0 0 0 0
0 0 0 0 0 0 0 0 0 0 1 3 4 6 8 7 7 9 15 24 38 51 61 65 66 61 49 34 19 8 2 0 0 0 0 0 0 0 0 0 0 0 0 0 0 0 0 0 0
0 0 0 0 0 0 0 0 0 1 4 7 10 15 20 21 22 26 31 36 42 48 52 54 52 45 35 23 13 6 2 0 0 0 0 0 0 0 0 0 0 0 0 0 0 0 0 0 0
0 0 0 0 0 0 0 0 1 5 11 17 21 27 32 35 38 42 44 46 45 43 43 44 39 28 18 10 5 2 1 0 0 0 0 0 0 0 0 0 0 0 0 0 0 0 0 0 0
0 0 0 0 0 0 0 1 5 14 23 27 30 31 33 35 37 38 37 36 33 30 28 26 21 12 5 2 1 0 0 0 0 0 0 0 0 0 0 0 0 0 0 0 0 0 0 0 0
0 0 0 0 0 0 0 2 11 26 35 34 30 26 21 20 20 20 18 17 15 13 12 9 6 3 1 0 0 0 0 0 0 0 0 0 0 0 0 0 0 0 0 0 0 0 0 0 0
0 0 0 0 0 0 0 2 12 28 38 35 27 18 10 6 5 5 5 4 4 3 2 1 1 1 0 0 0 0 0 0 0 0 0 0 0 0 0 0 0 0 0 0 0 0 0 0 0
0 0 0 0 0 0 0 1 7 20 31 32 23 12 4 1 0 0 0 1 1 1 0 0 0 0 0 0 0 0 0 0 0 0 0 0 0 0 0 0 0 0 0 0 0 0 0 0 0
0 0 0 0 0 0 0 1 6 18 29 27 17 7 2 0 0 0 0 0 0 0 0 0 0 0 0 0 0 0 0 0 0 0 0 0 0 0 0 0 0 0 0 0 0 0 0 0 0
0 0 0 0 0 0 0 2 8 22 32 25 12 4 1 0 0 0 0 0 0 0 0 0 0 0 0 0 0 0 0 0 0 0 0 0 0 0 0 0 0 0 0 0 0 0 0 0 0
Wind_Speed
1 4 3 3 6 5 4 5 3 4 1 1 4 5 5 5 4 3 1 7 13 11 9 12 14 15 16 16 16 15 15 15 14 13 13 13 12 12 11 11 11 10 10 10 9 9 10 10 9
3 4 3 5 5 2 6 5 4 3 1 2 3 3 3 2 2 4 4 7 13 12 8 10 15 14 16 16 16 16 16 15 14 13 13 13 12 11 11 11 11 10 9 8 8 8 9 8 8
3 3 5 5 3 5 5 4 2 2 0 2 3 3 2 3 5 5 6 12 12 10 8 10 17 15 16 16 16 16 16 15 14 14 13 12 12 10 10 10 10 9 8 7 7 7 7 7 7
4 5 6 4 5 7 6 6 3 2 2 2 4 3 2 2 6 7 12 13 13 10 8 10 17 16 16 16 16 16 16 15 14 14 13 12 11 10 10 10 9 9 8 7 7 6 6 6 5
5 5 4 0 6 7 6 7 5 5 2 2 4 3 1 3 7 13 13 13 13 9 7 9 15 16 17 17 17 16 15 15 14 14 13 12 10 10 9 9 9 8 7 7 6 5 5 4 4
5 5 4 4 6 7 6 6 4 5 3 3 6 3 1 3 10 12 11 10 10 10 8 8 16 18 17 17 16 15 15 14 13 12 12 11 10 9 9 9 9 8 7 6 5 4 4 3 3
5 5 5 5 3 5 5 2 3 4 4 5 7 5 2 4 8 11 9 9 8 9 8 7 8 12 17 17 16 15 14 13 12 12 11 10 10 10 10 9 8 7 6 5 4 3 2 1 1
5 5 4 3 4 5 3 2 2 4 5 5 8 8 7 7 9 9 9 7 7 8 8 7 6 6 7 10 16 16 15 14 13 13 13 12 11 11 10 8 8 7 6 5 4 3 1 1 1
4 5 4 5 6 4 2 2 2 1 3 4 5 6 6 13 14 11 8 6 8 10 9 7 7 7 6 7 11 13 15 14 13 11 13 10 5 5 5 7 8 8 7 5 4 3 2 2 2
4 4 8 6 4 3 3 2 3 1 2 2 2 3 11 16 15 15 13 13 14 14 13 9 9 9 8 8 6 5 6 6 6 5 6 4 3 3 4 5 9 8 6 5 4 3 2 2 2
6 7 6 6 5 3 4 4 2 4 5 9 9 11 18 17 15 15 16 15 15 13 13 12 11 10 10 6 5 4 3 4 5 6 5 4 3 2 2 1 2 2 2 0 2 3 2 2 2
5 5 5 4 2 2 4 4 3 7 12 8 10 17 21 21 21 20 19 17 13 12 14 13 13 11 10 7 6 6 5 4 4 5 5 4 3 3 2 1 1 0 1 1 1 1 2 2 2
5 5 5 6 6 5 5 6 5 9 10 5 11 17 21 21 20 17 14 13 13 15 16 14 14 13 11 8 7 7 7 6 6 5 5 5 4 4 3 1 1 1 1 1 1 1 3 4 4
4 4 4 5 6 4 5 6 4 11 5 7 14 18 21 21 20 15 15 16 17 17 16 14 15 14 11 10 8 7 7 6 5 5 5 6 4 3 3 2 1 1 2 2 2 3 4 4 4
2 3 5 4 3 3 2 5 5 8 3 9 13 17 18 17 16 18 20 19 18 16 15 15 15 13 12 11 9 6 5 5 4 4 4 5 4 3 3 2 2 2 3 4 4 5 4 4 4
2 2 2 6 3 3 2 6 6 5 4 9 11 14 15 15 17 17 16 15 13 12 13 14 14 13 12 9 7 4 3 3 2 2 3 4 4 4 3 2 2 3 3 4 4 3 4 4 4
4 1 2 5 3 3 2 6 8 5 5 9 11 13 15 14 15 15 15 15 14 14 13 13 12 12 11 8 5 4 3 3 2 2 1 2 3 4 4 3 3 4 4 4 4 3 3 3 2
3 2 2 3 4 4 4 7 10 5 7 10 10 11 12 15 21 18 15 13 12 12 12 11 11 9 8 6 4 4 5 5 4 4 2 4 4 7 7 5 5 5 5 4 3 4 4 2 1
3 2 4 6 4 3 5 9 11 6 5 8 9 11 13 19 18 12 11 10 10 11 12 12 11 8 7 5 5 4 4 4 5 4 5 5 6 8 7 6 5 5 4 4 3 3 4 3 1
3 2 5 7 3 1 5 9 10 6 6 7 9 11 14 14 11 11 10 9 9 9 9 9 8 7 7 5 5 5 6 5 4 4 4 5 6 7 7 7 6 5 5 4 3 3 3 2 3
4 5 5 6 6 4 3 9 9 7 2 3 5 7 7 8 10 8 7 7 6 6 7 6 8 8 9 10 8 7 6 4 3 3 2 3 5 5 6 6 6 5 5 4 4 3 4 3 2
6 8 6 3 1 4 2 4 11 7 8 6 8 8 8 7 4 2 3 3 4 5 7 10 11 12 11 11 9 8 5 4 3 3 2 3 4 5 6 6 7 6 4 5 4 4 3 4 2
8 4 5 4 4 2 1 3 10 6 7 8 10 11 10 8 7 8 8 9 9 9 11 12 13 13 11 10 9 8 6 5 4 5 5 4 4 5 6 6 6 5 4 5 5 5 4 3 3
5 3 5 5 4 2 5 6 7 4 6 7 8 10 11 11 13 13 13 13 12 11 11 11 13 12 10 9 8 9 9 7 7 7 6 5 4 4 5 6 5 5 4 5 4 4 5 3 3
4 5 4 4 3 7 3 4 4 5 5 5 8 10 11 11 11 12 12 12 11 11 11 11 12 11 8 9 8 8 9 8 8 8 7 6 4 4 4 4 4 4 4 4 4 4 3 3 2
6 10 8 6 6 5 0 3 0 3 7 9 10 10 11 12 12 13 12 12 11 11 10 10 11 10 9 8 8 9 8 6 6 8 7 6 4 4 4 4 4 4 4 4 4 3 3 2 2
6 7 8 7 3 1 2 1 1 5 8 9 10 11 11 12 13 13 13 13 12 12 11 10 11 11 10 10 10 10 9 8 9 8 7 6 5 4 5 5 5 5 5 5 5 4 4 4 3
5 6 6 7 8 4 2 1 1 1 5 7 8 9 10 11 12 13 12 13 12 12 12 12 12 11 10 9 9 9 9 9 9 8 8 7 5 5 5 6 6 6 6 6 6 5 4 5 3
3 3 4 4 5 7 4 3 1 2 4 6 7 9 9 10 10 11 10 11 11 11 11 11 11 11 10 10 10 10 9 9 9 9 8 7 6 6 7 7 7 7 7 5 5 5 4 5 4
4 3 5 5 3 3 5 2 3 2 6 8 8 8 9 9 9 9 9 10 10 11 10 10 10 10 9 9 9 10 9 10 10 9 8 8 8 7 7 7 7 6 6 5 5 5 5 5 5
Wind_Direction
136 128 119 73 47 37 296 271 267 297 258 194 137 137 153 156 179 208 75 121 127 133 142 150 151 148 142 138 134 131 128 125 122 121 121 121 121 122 122 123 123 123 122 118 113 106 101 97 94
150 133 74 60 77 357 285 267 279 274 230 97 85 93 104 131 108 119 125 129 131 134 137 148 151 148 143 140 137 136 135 134 133 133 134 134 133 133 134 135 134 132 130 125 118 109 102 97 93
132 86 87 77 126 196 249 260 262 323 103 98 86 62 115 169 150 149 147 135 130 133 138 155 152 149 146 143 142 141 141 141 142 144 144 144 144 142 143 145 144 141 138 133 125 113 104 98 92
94 57 58 87 222 228 233 259 287 298 314 84 109 93 56 124 155 148 140 140 135 137 144 156 154 152 149 148 148 148 148 149 151 152 154 154 154 154 155 154 152 150 148 144 133 118 106 96 87
64 84 82 173 246 252 243 252 247 236 218 131 118 121 22 39 115 135 144 146 142 142 146 156 155 156 155 155 155 155 156 157 158 160 161 161 161 162 162 162 162 161 160 154 141 122 105 90 76
63 78 117 224 253 266 259 238 225 220 194 132 123 131 251 132 138 148 148 145 143 146 148 157 162 163 162 162 161 162 162 163 164 165 166 167 167 168 168 170 172 174 173 166 150 129 110 88 66
114 121 176 205 244 271 262 243 203 192 182 171 140 139 230 175 163 148 141 134 138 148 153 161 169 168 168 167 166 166 166 167 168 170 171 172 173 175 178 180 182 185 184 180 168 148 128 87 35
132 121 172 211 219 253 271 315 252 176 188 150 137 161 205 190 154 137 126 128 143 157 166 168 171 168 167 170 173 173 173 173 175 178 180 181 183 185 190 189 192 194 197 198 193 183 189 263 327
101 94 196 214 204 240 280 338 293 205 140 149 171 187 191 148 145 137 131 141 165 178 183 179 175 172 168 170 181 178 180 181 182 185 188 186 184 190 197 200 203 206 208 212 212 214 241 287 330
114 161 219 221 213 235 287 268 246 160 155 185 157 132 137 148 159 162 169 177 184 189 191 189 185 179 174 180 179 176 178 181 181 177 186 177 172 191 201 214 216 218 218 226 232 245 287 351 2
167 192 225 242 240 258 288 283 226 163 219 211 189 162 152 164 172 179 184 189 192 191 192 194 191 186 182 181 173 173 171 173 180 183 182 170 169 185 200 193 239 246 241 297 3 7 20 18 355
178 229 230 255 250 273 261 267 251 206 222 209 175 162 165 176 184 189 190 192 191 190 197 195 193 191 190 184 179 178 179 181 187 190 182 169 171 184 193 191 195 122 69 67 41 27 21 27 32
212 248 245 254 277 255 252 244 243 248 243 178 156 166 179 187 192 195 194 193 191 196 199 196 195 195 192 188 184 185 188 188 188 186 185 178 180 189 191 187 160 144 118 108 71 59 63 61 58
227 238 276 282 275 255 237 260 232 261 233 164 165 181 190 194 193 191 194 197 199 200 200 197 197 197 193 193 190 189 188 185 183 186 186 183 183 182 179 179 165 149 136 124 107 98 91 77 70
275 287 315 285 262 253 218 289 239 263 177 178 185 191 196 200 196 200 201 201 201 200 198 198 199 197 196 196 193 188 185 179 184 187 181 181 183 181 171 165 153 130 119 112 100 90 83 78 70
14 42 322 295 297 292 189 265 275 282 196 203 199 198 202 206 208 208 206 205 200 196 197 199 200 197 197 195 186 177 165 165 173 172 169 179 178 165 148 134 114 101 98 99 98 87 78 67 72
24 39 261 302 339 25 55 266 278 290 220 221 212 206 208 211 220 216 209 205 200 198 195 196 200 193 190 181 165 150 124 122 115 111 126 148 143 130 114 103 95 92 82 79 90 66 78 71 69
228 233 268 284 307 1 334 280 288 285 230 232 226 217 215 215 222 218 212 206 198 194 193 194 196 186 168 157 130 108 88 80 68 61 70 101 109 111 106 101 100 96 91 77 80 88 67 64 46
193 220 275 271 280 309 291 290 290 288 249 245 243 231 224 226 228 220 214 206 194 191 190 191 190 174 157 148 136 117 97 84 73 63 68 91 107 111 113 118 107 103 105 117 126 108 85 49 355
195 245 277 289 325 270 293 291 283 272 246 244 247 245 238 237 231 217 213 206 200 195 189 183 174 156 148 128 112 105 103 91 86 85 83 98 113 121 127 131 126 120 116 113 118 130 114 60 18
199 205 235 264 331 340 295 310 305 304 326 324 314 292 281 258 239 222 205 205 194 182 169 150 136 126 117 112 106 105 100 94 83 76 75 86 106 116 120 124 122 121 123 124 116 121 127 122 47
237 225 213 234 328 301 24 308 296 309 330 2 3 352 335 323 301 216 170 155 137 127 115 113 112 112 114 116 120 119 113 106 95 99 94 87 92 103 112 117 119 120 120 119 113 100 110 121 119
217 217 197 208 192 270 270 187 281 339 341 357 11 12 11 17 42 61 75 85 87 93 100 106 108 110 114 115 122 119 110 108 117 120 117 102 88 93 104 108 110 112 111 106 103 101 94 96 117
199 71 47 52 90 242 230 167 270 337 331 344 22 38 43 52 63 70 75 80 82 88 96 104 108 106 107 109 111 116 122 135 143 138 127 115 99 91 96 103 102 106 107 107 107 104 103 103 110
138 108 25 358 30 242 228 158 253 335 10 41 55 54 53 57 64 69 71 75 79 84 91 98 102 101 100 102 106 117 128 136 139 132 126 121 114 106 101 105 106 105 104 106 106 99 98 106 113
183 151 164 194 210 255 107 179 33 33 68 72 69 64 59 57 59 62 64 67 69 72 76 85 90 89 84 86 89 93 102 110 115 120 123 119 116 112 113 109 102 98 95 93 86 79 72 72 69
165 193 180 150 168 184 261 159 66 60 76 75 72 68 62 58 58 58 57 57 60 60 60 68 78 78 76 80 83 85 91 96 101 104 104 107 110 112 103 95 82 72 71 72 72 64 57 61 53
162 151 107 134 154 200 235 171 195 91 99 87 77 71 65 60 60 60 58 58 58 59 61 62 67 73 74 76 81 87 87 92 99 101 100 97 92 91 89 79 77 72 69 74 78 76 67 65 45
99 106 115 126 156 160 192 239 257 194 131 110 87 74 67 64 63 62 62 62 65 65 65 66 66 69 70 72 77 80 81 84 87 88 87 86 83 84 86 89 88 85 83 81 80 73 57 47 24
103 125 142 148 183 154 150 198 330 110 112 108 96 83 73 69 65 64 65 66 66 67 67 68 69 72 72 75 79 79 80 81 82 82 81 82 81 81 90 96 97 94 88 80 75 61 46 30 7